Location: Cruquius
(52.3348°N, 4.6319°E)
Time: 22:16:19
(UTC+00:00)

Cosmos 1812 - Pass Details

Date: 12 May 2021
Orbit: 514 x 521 km, 82.5° (Epoch: 23 June)

Event Time Altitude Azimuth Distance (km) Brightness Sun altitude
Exits shadow 20:32:25 - 173° (S) 2,058 5.3 -8.7°
Reaches altitude 10° 20:33:09 10° 171° (S) 1,757 4.9 -8.8°
Maximum altitude 20:36:54 50° 95° (E) 672 3.0 -9.2°
Drops below altitude 10° 20:40:40 10° 20° (NNE) 1,772 5.8 -9.5°
Sets 20:42:51 0° 15° (NNE) 2,665 6.8 -9.8°
